Regional Weather Roundup
Issued by NWS

Home | Current Version | Previous Version | Graphics & Text | Print | Product List | Glossary On
Versions: 1 2 3 4 5 6 7 8 9 10 11 12 13 14 15 16 17 18 19 20 21 22 23 24 25 26 27 28 29 30 31 32 33 34 35 36 37 38 39 40 41 42 43 44 45 46 47 48 49 50
000
ASUS43 KBIS 020020
RWRND

NORTH DAKOTA REGIONAL WEATHER ROUNDUP
NATIONAL WEATHER SERVICE BISMARCK ND
700 PM CDT FRI AUG 01 2014

NOTE: "FAIR" INDICATES FEW OR NO CLOUDS BELOW 12,000 FEET WITH NO
SIGNIFICANT WEATHER AND/OR OBSTRUCTIONS TO VISIBILITY.


NDZ001>003-009>011-017-020100-
NORTHWEST NORTH DAKOTA

CITY           SKY/WX    TMP DP  RH WIND       PRES   REMARKS
WILLISTON      SUNNY     85  55  35 S8        30.06F
6HR MIN TEMP:  75; 6HR MAX TEMP:  86;

MINOT          PTSUNNY   82  58  43 NE5       30.07S
MINOT AFB      PTSUNNY   81  60  49 E3        30.06S
$$

NDZ018>021-031>035-040>046-020100-
SOUTHWEST NORTH DAKOTA

CITY           SKY/WX    TMP DP  RH WIND       PRES   REMARKS
BISMARCK       PTSUNNY   83  59  44 NE13      30.03F HAZE
6HR MIN TEMP:  83; 6HR MAX TEMP:  92; 6HR PCP: TRACE;

DICKINSON      SUNNY     81  59  47 NE18      30.06S
GARRISON         N/A     80  65  59 N5        30.07F
6HR MIN TEMP:  75; 6HR MAX TEMP:  83;

HETTINGER ARPT SUNNY     87  57  35 E16G22    30.04S
$$

NDZ004>008-012>016-024-026-027-054-020100-
NORTHEAST NORTH DAKOTA

CITY           SKY/WX    TMP DP  RH WIND       PRES   REMARKS
GRAND FORKS    MOSUNNY   81  59  47 E5        30.05F
GRND FRKS AFB  MOSUNNY   80  60  50 E5        30.07S
DEVILS LAKE    PTSUNNY   79  57  47 SE7       30.06S
$$

NDZ022-023-025-028>030-036>039-047>053-020100-
SOUTHEAST NORTH DAKOTA

CITY           SKY/WX    TMP DP  RH WIND       PRES   REMARKS
FARGO          MOSUNNY   81  54  39 N8        30.05F
6HR MIN TEMP:  81; 6HR MAX TEMP:  84;

JAMESTOWN      MOSUNNY   80  58  46 E5        30.06F
$$



USA.gov is the U.S. government's official web portal to all federal, state and local government web resources and services.